| time (UTC) | temp C | wind direction | speed KPH | gust KPH | rain 1hr cm | rain 24hr cm | rain mn cm | humidity % | barometer mb |
| 20260505031906 | 35 | 0 | 0.0 | 0.0 | 0.00 | 0.00 | 0.00 | 46 | 979.0 |
| 20260505030844 | 35 | 0 | 0.0 | 0.0 | 0.00 | 0.00 | 0.00 | 46 | 979.0 |
| 20260505025822 | 35 | 0 | 0.0 | 0.0 | 0.00 | 0.00 | 0.00 | 46 | 979.0 |
| 20260505024800 | 35 | 0 | 0.0 | 0.0 | 0.00 | 0.00 | 0.00 | 46 | 979.0 |
| 20260505023738 | 35 | 0 | 0.0 | 0.0 | 0.00 | 0.00 | 0.00 | 46 | 979.0 |
| 20260505022716 | 35 | 0 | 0.0 | 0.0 | 0.00 | 0.00 | 0.00 | 46 | 979.0 |
| 20260505021654 | 35 | 0 | 0.0 | 0.0 | 0.00 | 0.00 | 0.00 | 46 | 979.0 |
| 20260505020632 | 35 | 0 | 0.0 | 0.0 | 0.00 | 0.00 | 0.00 | 46 | 979.0 |
| 20260505015610 | 35 | 0 | 0.0 | 0.0 | 0.00 | 0.00 | 0.00 | 46 | 979.0 |
| 20260505014548 | 35 | 0 | 0.0 | 0.0 | 0.00 | 0.00 | 0.00 | 47 | 979.0 |
| 20260505013526 | 35 | 0 | 0.0 | 0.0 | 0.00 | 0.00 | 0.00 | 47 | 978.0 |
| 20260505012504 | 35 | 0 | 0.0 | 0.0 | 0.00 | 0.00 | 0.00 | 47 | 979.0 |
| 20260505011442 | 35 | 0 | 0.0 | 0.0 | 0.00 | 0.00 | 0.00 | 47 | 978.0 |
| 20260505010420 | 35 | 0 | 0.0 | 0.0 | 0.00 | 0.00 | 0.00 | 47 | 978.0 |
| 20260505005358 | 35 | 0 | 0.0 | 0.0 | 0.00 | 0.00 | 0.00 | 47 | 978.0 |
| 20260505004336 | 35 | 0 | 0.0 | 0.0 | 0.00 | 0.00 | 0.00 | 47 | 978.0 |
| 20260505003314 | 35 | 0 | 0.0 | 0.0 | 0.00 | 0.00 | 0.00 | 47 | 978.0 |
| 20260505002251 | 35 | 0 | 0.0 | 0.0 | 0.00 | 0.00 | 0.00 | 47 | 978.0 |
| 20260505001229 | 35 | 0 | 0.0 | 0.0 | 0.00 | 0.00 | 0.00 | 47 | 978.0 |
| 20260505000207 | 35 | 0 | 0.0 | 0.0 | 0.00 | 0.00 | 0.00 | 47 | 978.0 |
| 20260504235145 | 35 | 0 | 0.0 | 0.0 | 0.00 | 0.00 | 0.00 | 46 | 978.0 |
| 20260504234123 | 35 | 0 | 0.0 | 0.0 | 0.00 | 0.00 | 0.00 | 46 | 977.0 |
| 20260504233101 | 35 | 0 | 0.0 | 0.0 | 0.00 | 0.00 | 0.00 | 46 | 977.0 |
| 20260504232039 | 35 | 0 | 0.0 | 0.0 | 0.00 | 0.00 | 0.00 | 46 | 977.0 |
| 20260504231017 | 35 | 0 | 0.0 | 0.0 | 0.00 | 0.00 | 0.00 | 46 | 977.0 |
| 20260504225955 | 35 | 0 | 0.0 | 0.0 | 0.00 | 0.00 | 0.00 | 46 | 977.0 |
| 20260504224933 | 35 | 0 | 0.0 | 0.0 | 0.00 | 0.00 | 0.00 | 46 | 977.0 |
| 20260504223911 | 35 | 0 | 0.0 | 0.0 | 0.00 | 0.00 | 0.00 | 45 | 976.0 |
| 20260504222849 | 35 | 0 | 0.0 | 0.0 | 0.00 | 0.00 | 0.00 | 45 | 976.0 |
| 20260504221827 | 35 | 0 | 0.0 | 0.0 | 0.00 | 0.00 | 0.00 | 45 | 976.0 |
| 20260504220805 | 35 | 0 | 0.0 | 0.0 | 0.00 | 0.00 | 0.00 | 45 | 976.0 |
| 20260504215743 | 35 | 0 | 0.0 | 0.0 | 0.00 | 0.00 | 0.00 | 45 | 976.0 |
| 20260504214721 | 35 | 0 | 0.0 | 0.0 | 0.00 | 0.00 | 0.00 | 45 | 976.0 |
| 20260504213659 | 35 | 0 | 0.0 | 0.0 | 0.00 | 0.00 | 0.00 | 45 | 976.0 |
| 20260504212637 | 35 | 0 | 0.0 | 0.0 | 0.00 | 0.00 | 0.00 | 45 | 976.0 |
| 20260504211615 | 35 | 0 | 0.0 | 0.0 | 0.00 | 0.00 | 0.00 | 45 | 976.0 |
| 20260504210553 | 35 | 0 | 0.0 | 0.0 | 0.00 | 0.00 | 0.00 | 45 | 976.0 |
| 20260504205531 | 35 | 0 | 0.0 | 0.0 | 0.00 | 0.00 | 0.00 | 45 | 976.0 |
| 20260504204509 | 35 | 0 | 0.0 | 0.0 | 0.00 | 0.00 | 0.00 | 45 | 976.0 |
| 20260504203447 | 35 | 0 | 0.0 | 0.0 | 0.00 | 0.00 | 0.00 | 45 | 976.0 |
| 20260504202425 | 35 | 0 | 0.0 | 0.0 | 0.00 | 0.00 | 0.00 | 45 | 976.0 |
| 20260504201403 | 35 | 0 | 0.0 | 0.0 | 0.00 | 0.00 | 0.00 | 45 | 977.0 |
| 20260504200341 | 35 | 0 | 0.0 | 0.0 | 0.00 | 0.00 | 0.00 | 45 | 976.0 |
| 20260504195319 | 35 | 0 | 0.0 | 0.0 | 0.00 | 0.00 | 0.00 | 45 | 977.0 |
| 20260504194257 | 35 | 0 | 0.0 | 0.0 | 0.00 | 0.00 | 0.00 | 45 | 977.0 |
| 20260504193235 | 35 | 0 | 0.0 | 0.0 | 0.00 | 0.00 | 0.00 | 45 | 977.0 |
| 20260504192213 | 35 | 0 | 0.0 | 0.0 | 0.00 | 0.00 | 0.00 | 44 | 977.0 |
| 20260504191151 | 35 | 0 | 0.0 | 0.0 | 0.00 | 0.00 | 0.00 | 44 | 977.0 |
| 20260504190129 | 35 | 0 | 0.0 | 0.0 | 0.00 | 0.00 | 0.00 | 44 | 977.0 |
| 20260504185107 | 35 | 0 | 0.0 | 0.0 | 0.00 | 0.00 | 0.00 | 44 | 977.0 |
| 20260504184045 | 35 | 0 | 0.0 | 0.0 | 0.00 | 0.00 | 0.00 | 44 | 977.0 |
| 20260504183023 | 35 | 0 | 0.0 | 0.0 | 0.00 | 0.00 | 0.00 | 44 | 977.0 |
| 20260504182001 | 35 | 0 | 0.0 | 0.0 | 0.00 | 0.00 | 0.00 | 44 | 977.0 |
| 20260504180939 | 35 | 0 | 0.0 | 0.0 | 0.00 | 0.00 | 0.00 | 44 | 977.0 |
| 20260504175917 | 35 | 0 | 0.0 | 0.0 | 0.00 | 0.00 | 0.00 | 44 | 977.0 |
| 20260504174855 | 35 | 0 | 0.0 | 0.0 | 0.00 | 0.00 | 0.00 | 44 | 977.0 |
| 20260504173833 | 35 | 0 | 0.0 | 0.0 | 0.00 | 0.00 | 0.00 | 44 | 977.0 |
| 20260504172811 | 35 | 0 | 0.0 | 0.0 | 0.00 | 0.00 | 0.00 | 44 | 977.0 |
| 20260504171749 | 35 | 0 | 0.0 | 0.0 | 0.00 | 0.00 | 0.00 | 43 | 977.0 |
| 20260504170727 | 35 | 0 | 0.0 | 0.0 | 0.00 | 0.00 | 0.00 | 43 | 977.0 |
| 20260504150303 | 36 | 0 | 0.0 | 0.0 | 0.00 | 0.00 | 0.00 | 39 | 975.0 |
| 20260504141113 | 36 | 0 | 0.0 | 0.0 | 0.00 | 0.00 | 0.00 | 39 | 974.0 |
| 20260504110437 | 37 | 0 | 0.0 | 0.0 | 0.00 | 0.00 | 0.00 | 36 | 972.0 |
| 20260504100225 | 37 | 0 | 0.0 | 0.0 | 0.00 | 0.00 | 0.00 | 34 | 970.0 |
| 20260504081845 | 37 | 0 | 0.0 | 0.0 | 0.00 | 0.00 | 0.00 | 35 | 972.0 |
| 20260504080823 | 37 | 0 | 0.0 | 0.0 | 0.00 | 0.00 | 0.00 | 35 | 972.0 |
| 20260504050147 | 36 | 0 | 0.0 | 0.0 | 0.00 | 0.00 | 0.00 | 40 | 976.0 |
| 20260504045125 | 36 | 0 | 0.0 | 0.0 | 0.00 | 0.00 | 0.00 | 40 | 976.0 |
| 20260504044103 | 35 | 0 | 0.0 | 0.0 | 0.00 | 0.00 | 0.00 | 40 | 976.0 |
| 20260504043041 | 35 | 0 | 0.0 | 0.0 | 0.00 | 0.00 | 0.00 | 41 | 976.0 |
| 20260504042019 | 35 | 0 | 0.0 | 0.0 | 0.00 | 0.00 | 0.00 | 40 | 976.0 |
| 20260504040957 | 35 | 0 | 0.0 | 0.0 | 0.00 | 0.00 | 0.00 | 41 | 976.0 |
| 20260504035935 | 35 | 0 | 0.0 | 0.0 | 0.00 | 0.00 | 0.00 | 41 | 976.0 |
| 20260504034912 | 35 | 0 | 0.0 | 0.0 | 0.00 | 0.00 | 0.00 | 42 | 976.0 |
| 20260504033850 | 35 | 0 | 0.0 | 0.0 | 0.00 | 0.00 | 0.00 | 42 | 976.0 |
| 20260504032828 | 35 | 0 | 0.0 | 0.0 | 0.00 | 0.00 | 0.00 | 42 | 977.0 |